Time,TemperatureF,DewpointF,PressureIn,WindDirection,WindDirectionDegrees,WindSpeedMPH,WindSpeedGustMPH,Humidity,HourlyPrecipIn,Conditions,Clouds,dailyrainin,SoftwareType,DateUTC
2013-02-12 00:02:00,23.3,18.3,30.35,SSE,154,0.0,0.0,81,0.00,,,0.00,Wunderground v.1.15,2013-02-12 07:02:00,
2013-02-12 00:04:00,23.3,18.3,30.35,SSE,154,0.0,0.0,81,0.00,,,0.00,Wunderground v.1.15,2013-02-12 07:04:00,
2013-02-12 00:10:00,23.3,18.3,30.35,SSE,154,0.0,0.0,81,0.00,,,0.00,Wunderground v.1.15,2013-02-12 07:10:00,
2013-02-12 00:14:00,23.3,18.3,30.35,SSE,154,0.0,0.0,81,0.00,,,0.00,Wunderground v.1.15,2013-02-12 07:14:00,
2013-02-12 00:18:00,23.3,18.3,30.34,SSE,154,0.0,0.0,81,0.00,,,0.00,Wunderground v.1.15,2013-02-12 07:18:00,
2013-02-12 00:20:00,23.3,18.3,30.34,SSE,154,0.0,0.0,81,0.00,,,0.00,Wunderground v.1.15,2013-02-12 07:20:00,
2013-02-12 00:24:00,23.2,18.2,30.34,SSE,154,0.0,0.0,81,0.00,,,0.00,Wunderground v.1.15,2013-02-12 07:24:00,
2013-02-12 00:26:00,23.2,18.2,30.34,SSE,154,0.0,0.0,81,0.00,,,0.00,Wunderground v.1.15,2013-02-12 07:26:00,
2013-02-12 00:30:00,23.0,17.7,30.35,SSE,154,0.0,0.0,80,0.00,,,0.00,Wunderground v.1.15,2013-02-12 07:30:00,
2013-02-12 00:32:00,23.0,17.7,30.35,SSE,154,0.0,0.0,80,0.00,,,0.00,Wunderground v.1.15,2013-02-12 07:32:00,
2013-02-12 00:36:00,22.9,17.7,30.35,SSE,154,0.0,0.0,80,0.00,,,0.00,Wunderground v.1.15,2013-02-12 07:36:00,
2013-02-12 00:38:00,22.9,17.4,30.35,SSE,154,0.0,0.0,79,0.00,,,0.00,Wunderground v.1.15,2013-02-12 07:38:00,
2013-02-12 00:40:00,22.9,17.4,30.35,SSE,154,0.0,0.0,79,0.00,,,0.00,Wunderground v.1.15,2013-02-12 07:40:00,
2013-02-12 00:42:00,22.7,17.2,30.35,SSE,154,0.0,0.0,79,0.00,,,0.00,Wunderground v.1.15,2013-02-12 07:42:00,
2013-02-12 00:46:00,22.7,17.2,30.35,SSE,154,0.0,0.0,79,0.00,,,0.00,Wunderground v.1.15,2013-02-12 07:46:00,
2013-02-12 00:48:00,22.7,17.2,30.35,SSE,154,0.0,0.0,79,0.00,,,0.00,Wunderground v.1.15,2013-02-12 07:48:00,
2013-02-12 00:50:00,22.7,16.9,30.35,SSE,154,0.0,0.0,78,0.00,,,0.00,Wunderground v.1.15,2013-02-12 07:50:00,
2013-02-12 00:54:00,22.7,16.6,30.35,SSE,154,0.0,0.0,77,0.00,,,0.00,Wunderground v.1.15,2013-02-12 07:54:00,
2013-02-12 00:56:00,22.7,16.6,30.35,SSE,154,0.0,0.0,77,0.00,,,0.00,Wunderground v.1.15,2013-02-12 07:56:00,
2013-02-12 00:58:00,22.7,16.6,30.35,SSE,154,0.0,0.0,77,0.00,,,0.00,Wunderground v.1.15,2013-02-12 07:58:00,
2013-02-12 01:00:00,22.7,16.3,30.35,SSE,154,0.0,0.0,76,0.00,,,0.00,Wunderground v.1.15,2013-02-12 08:00:00,
2013-02-12 01:06:00,22.7,16.3,30.35,SSE,154,0.0,0.0,76,0.00,,,0.00,Wunderground v.1.15,2013-02-12 08:06:00,
2013-02-12 01:08:00,22.7,16.0,30.35,SSE,154,0.0,0.0,75,0.00,,,0.00,Wunderground v.1.15,2013-02-12 08:08:00,
2013-02-12 01:10:00,22.7,15.7,30.35,SSE,154,0.0,1.0,74,0.00,,,0.00,Wunderground v.1.15,2013-02-12 08:10:00,
2013-02-12 01:14:00,22.7,15.7,30.35,NE,54,0.0,1.0,74,0.00,,,0.00,Wunderground v.1.15,2013-02-12 08:14:00,
2013-02-12 01:16:00,22.9,15.8,30.34,North,9,0.0,2.0,74,0.00,,,0.00,Wunderground v.1.15,2013-02-12 08:16:00,
2013-02-12 01:18:00,22.9,15.5,30.34,North,11,1.0,2.0,73,0.00,,,0.00,Wunderground v.1.15,2013-02-12 08:18:00,
2013-02-12 01:20:00,22.9,15.2,30.34,North,11,1.0,1.0,72,0.00,,,0.00,Wunderground v.1.15,2013-02-12 08:20:00,
2013-02-12 01:22:00,23.0,15.6,30.34,North,11,1.0,1.0,73,0.00,,,0.00,Wunderground v.1.15,2013-02-12 08:22:00,
2013-02-12 01:26:00,23.0,15.3,30.34,North,11,1.0,1.0,72,0.00,,,0.00,Wunderground v.1.15,2013-02-12 08:26:00,
2013-02-12 01:28:00,23.0,15.6,30.34,North,11,0.0,1.0,73,0.00,,,0.00,Wunderground v.1.15,2013-02-12 08:28:00,
2013-02-12 01:32:00,23.0,15.3,30.34,North,11,0.0,0.0,72,0.00,,,0.00,Wunderground v.1.15,2013-02-12 08:32:00,
2013-02-12 01:34:00,23.0,15.3,30.34,North,11,0.0,0.0,72,0.00,,,0.00,Wunderground v.1.15,2013-02-12 08:34:00,
2013-02-12 01:36:00,23.0,15.3,30.34,North,11,0.0,0.0,72,0.00,,,0.00,Wunderground v.1.15,2013-02-12 08:36:00,
2013-02-12 01:38:00,23.0,15.3,30.34,North,11,0.0,0.0,72,0.00,,,0.00,Wunderground v.1.15,2013-02-12 08:38:00,
2013-02-12 01:40:00,23.0,15.3,30.34,North,11,0.0,0.0,72,0.00,,,0.00,Wunderground v.1.15,2013-02-12 08:40:00,
2013-02-12 01:42:00,23.0,15.3,30.34,North,11,0.0,0.0,72,0.00,,,0.00,Wunderground v.1.15,2013-02-12 08:42:00,
2013-02-12 01:46:00,23.0,15.3,30.34,North,11,0.0,0.0,72,0.00,,,0.00,Wunderground v.1.15,2013-02-12 08:46:00,
2013-02-12 01:48:00,23.0,15.3,30.34,North,11,0.0,0.0,72,0.00,,,0.00,Wunderground v.1.15,2013-02-12 08:48:00,
2013-02-12 01:54:00,22.9,15.5,30.34,North,11,0.0,0.0,73,0.00,,,0.00,Wunderground v.1.15,2013-02-12 08:54:00,
2013-02-12 01:58:00,22.9,15.5,30.34,North,10,0.0,0.0,73,0.00,,,0.00,Wunderground v.1.15,2013-02-12 08:58:00,
2013-02-12 02:02:00,22.7,15.3,30.35,North,10,0.0,1.0,73,0.00,,,0.00,Wunderground v.1.15,2013-02-12 09:02:00,
2013-02-12 02:04:00,22.7,15.3,30.35,North,11,0.0,1.0,73,0.00,,,0.00,Wunderground v.1.15,2013-02-12 09:04:00,
2013-02-12 02:06:00,22.7,15.3,30.35,North,11,0.0,1.0,73,0.00,,,0.00,Wunderground v.1.15,2013-02-12 09:06:00,
2013-02-12 02:10:00,22.7,15.3,30.35,North,11,1.0,1.0,73,0.00,,,0.00,Wunderground v.1.15,2013-02-12 09:10:00,
2013-02-12 02:12:00,22.7,15.3,30.35,North,10,0.0,1.0,73,0.00,,,0.00,Wunderground v.1.15,2013-02-12 09:12:00,
2013-02-12 02:16:00,22.7,15.3,30.37,North,10,0.0,1.0,73,0.00,,,0.00,Wunderground v.1.15,2013-02-12 09:16:00,
2013-02-12 02:18:00,22.5,15.1,30.37,North,11,0.0,1.0,73,0.00,,,0.00,Wunderground v.1.15,2013-02-12 09:18:00,
2013-02-12 02:20:00,22.5,15.5,30.37,North,11,0.0,0.0,74,0.00,,,0.00,Wunderground v.1.15,2013-02-12 09:20:00,
2013-02-12 02:22:00,22.5,15.5,30.37,North,11,0.0,0.0,74,0.00,,,0.00,Wunderground v.1.15,2013-02-12 09:22:00,
2013-02-12 02:26:00,22.5,15.5,30.37,North,11,0.0,0.0,74,0.00,,,0.00,Wunderground v.1.15,2013-02-12 09:26:00,
2013-02-12 02:28:00,22.5,15.5,30.37,North,11,0.0,0.0,74,0.00,,,0.00,Wunderground v.1.15,2013-02-12 09:28:00,
2013-02-12 02:30:00,22.4,15.4,30.37,North,11,0.0,0.0,74,0.00,,,0.00,Wunderground v.1.15,2013-02-12 09:30:00,
2013-02-12 02:32:00,22.4,15.4,30.37,North,11,0.0,0.0,74,0.00,,,0.00,Wunderground v.1.15,2013-02-12 09:32:00,
2013-02-12 02:34:00,22.4,15.4,30.37,North,11,0.0,0.0,74,0.00,,,0.00,Wunderground v.1.15,2013-02-12 09:34:00,
2013-02-12 02:36:00,22.4,15.4,30.37,North,11,0.0,0.0,74,0.00,,,0.00,Wunderground v.1.15,2013-02-12 09:36:00,
2013-02-12 02:38:00,22.2,15.2,30.37,North,10,0.0,0.0,74,0.00,,,0.00,Wunderground v.1.15,2013-02-12 09:38:00,
2013-02-12 02:40:00,22.2,15.2,30.37,North,11,0.0,0.0,74,0.00,,,0.00,Wunderground v.1.15,2013-02-12 09:40:00,
2013-02-12 02:44:00,22.2,15.5,30.37,North,11,0.0,0.0,75,0.00,,,0.00,Wunderground v.1.15,2013-02-12 09:44:00,
2013-02-12 02:46:00,22.1,15.4,30.37,North,11,0.0,0.0,75,0.00,,,0.00,Wunderground v.1.15,2013-02-12 09:46:00,
2013-02-12 02:48:00,22.1,15.4,30.37,North,11,0.0,0.0,75,0.00,,,0.00,Wunderground v.1.15,2013-02-12 09:48:00,
2013-02-12 02:50:00,22.1,15.4,30.37,North,10,0.0,0.0,75,0.00,,,0.00,Wunderground v.1.15,2013-02-12 09:50:00,
2013-02-12 02:52:00,21.9,15.2,30.37,North,11,0.0,0.0,75,0.00,,,0.00,Wunderground v.1.15,2013-02-12 09:52:00,
2013-02-12 02:56:00,21.8,15.1,30.37,North,11,0.0,0.0,75,0.00,,,0.00,Wunderground v.1.15,2013-02-12 09:56:00,
2013-02-12 02:58:00,21.8,15.1,30.37,North,11,0.0,0.0,75,0.00,,,0.00,Wunderground v.1.15,2013-02-12 09:58:00,
2013-02-12 03:02:00,21.6,14.9,30.37,North,11,0.0,0.0,75,0.00,,,0.00,Wunderground v.1.15,2013-02-12 10:02:00,
2013-02-12 03:04:00,21.4,14.7,30.37,North,11,0.0,0.0,75,0.00,,,0.00,Wunderground v.1.15,2013-02-12 10:04:00,
2013-02-12 03:08:00,21.3,14.9,30.37,North,11,0.0,0.0,76,0.00,,,0.00,Wunderground v.1.15,2013-02-12 10:08:00,
2013-02-12 03:10:00,21.3,14.9,30.37,North,11,0.0,0.0,76,0.00,,,0.00,Wunderground v.1.15,2013-02-12 10:10:00,
2013-02-12 03:12:00,21.1,14.7,30.37,North,11,0.0,0.0,76,0.00,,,0.00,Wunderground v.1.15,2013-02-12 10:12:00,
2013-02-12 03:14:00,21.0,14.6,30.37,North,10,0.0,0.0,76,0.00,,,0.00,Wunderground v.1.15,2013-02-12 10:14:00,
2013-02-12 03:16:00,20.8,14.4,30.40,North,11,0.0,0.0,76,0.00,,,0.00,Wunderground v.1.15,2013-02-12 10:16:00,
2013-02-12 03:18:00,20.8,14.4,30.40,North,11,0.0,0.0,76,0.00,,,0.00,Wunderground v.1.15,2013-02-12 10:18:00,
2013-02-12 03:22:00,20.5,14.1,30.40,North,11,0.0,0.0,76,0.00,,,0.00,Wunderground v.1.15,2013-02-12 10:22:00,
2013-02-12 03:26:00,20.5,14.4,30.40,North,11,0.0,0.0,77,0.00,,,0.00,Wunderground v.1.15,2013-02-12 10:26:00,
2013-02-12 03:28:00,20.5,14.4,30.40,North,11,0.0,0.0,77,0.00,,,0.00,Wunderground v.1.15,2013-02-12 10:28:00,
2013-02-12 03:30:00,20.3,14.2,30.40,North,11,0.0,0.0,77,0.00,,,0.00,Wunderground v.1.15,2013-02-12 10:30:00,
2013-02-12 03:34:00,20.3,14.2,30.40,North,11,0.0,0.0,77,0.00,,,0.00,Wunderground v.1.15,2013-02-12 10:34:00,
2013-02-12 03:36:00,20.3,14.2,30.40,North,11,0.0,0.0,77,0.00,,,0.00,Wunderground v.1.15,2013-02-12 10:36:00,
2013-02-12 03:40:00,20.3,14.2,30.40,North,11,0.0,0.0,77,0.00,,,0.00,Wunderground v.1.15,2013-02-12 10:40:00,
2013-02-12 03:44:00,20.3,13.9,30.40,North,11,0.0,1.0,76,0.00,,,0.00,Wunderground v.1.15,2013-02-12 10:44:00,
2013-02-12 03:46:00,20.2,13.8,30.40,North,11,0.0,1.0,76,0.00,,,0.00,Wunderground v.1.15,2013-02-12 10:46:00,
2013-02-12 03:50:00,20.2,13.8,30.40,North,11,0.0,0.0,76,0.00,,,0.00,Wunderground v.1.15,2013-02-12 10:50:00,
2013-02-12 03:52:00,20.3,13.9,30.40,North,11,0.0,0.0,76,0.00,,,0.00,Wunderground v.1.15,2013-02-12 10:52:00,
2013-02-12 03:58:00,20.3,13.9,30.40,North,11,0.0,0.0,76,0.00,,,0.00,Wunderground v.1.15,2013-02-12 10:58:00,
2013-02-12 04:01:00,20.3,13.9,30.41,North,11,0.0,0.0,76,0.00,,,0.00,Wunderground v.1.15,2013-02-12 11:01:00,
2013-02-12 04:02:00,20.3,13.9,30.41,North,11,0.0,0.0,76,0.00,,,0.00,Wunderground v.1.15,2013-02-12 11:02:00,
2013-02-12 04:06:00,20.5,13.8,30.41,North,10,0.0,0.0,75,0.00,,,0.00,Wunderground v.1.15,2013-02-12 11:06:00,
2013-02-12 04:08:00,20.5,13.8,30.41,North,11,0.0,0.0,75,0.00,,,0.00,Wunderground v.1.15,2013-02-12 11:08:00,
2013-02-12 04:14:00,20.6,13.6,30.41,North,10,0.0,1.0,74,0.00,,,0.00,Wunderground v.1.15,2013-02-12 11:14:00,
2013-02-12 04:16:00,20.6,13.3,30.43,North,11,0.0,1.0,73,0.00,,,0.00,Wunderground v.1.15,2013-02-12 11:16:00,
2013-02-12 04:18:00,20.6,13.3,30.43,North,11,0.0,1.0,73,0.00,,,0.00,Wunderground v.1.15,2013-02-12 11:18:00,
2013-02-12 04:20:00,20.6,13.0,30.43,North,11,0.0,0.0,72,0.00,,,0.00,Wunderground v.1.15,2013-02-12 11:20:00,
2013-02-12 04:24:00,20.6,13.0,30.43,North,11,0.0,5.0,72,0.00,,,0.00,Wunderground v.1.15,2013-02-12 11:24:00,
2013-02-12 04:26:00,20.8,12.9,30.43,North,355,1.0,5.0,71,0.00,,,0.00,Wunderground v.1.15,2013-02-12 11:26:00,
2013-02-12 04:30:00,20.8,13.2,30.43,North,5,1.0,1.0,72,0.00,,,0.00,Wunderground v.1.15,2013-02-12 11:30:00,
2013-02-12 04:32:00,20.8,12.9,30.43,North,10,1.0,1.0,71,0.00,,,0.00,Wunderground v.1.15,2013-02-12 11:32:00,
2013-02-12 04:36:00,20.8,12.9,30.43,North,11,1.0,1.0,71,0.00,,,0.00,Wunderground v.1.15,2013-02-12 11:36:00,
2013-02-12 04:38:00,20.8,12.9,30.43,North,32767,1.0,1.0,71,0.00,,,0.00,Wunderground v.1.15,2013-02-12 11:38:00,
2013-02-12 04:42:00,20.6,12.4,30.43,North,5,1.0,1.0,70,0.00,,,0.00,Wunderground v.1.15,2013-02-12 11:42:00,
2013-02-12 04:44:00,20.6,12.0,30.43,North,5,1.0,3.0,69,0.00,,,0.00,Wunderground v.1.15,2013-02-12 11:44:00,
2013-02-12 04:46:00,20.5,11.9,30.44,NNE,29,1.0,3.0,69,0.00,,,0.00,Wunderground v.1.15,2013-02-12 11:46:00,
2013-02-12 04:50:00,20.5,11.9,30.44,NNE,16,1.0,1.0,69,0.00,,,0.00,Wunderground v.1.15,2013-02-12 11:50:00,
2013-02-12 04:52:00,20.5,11.9,30.44,NNE,17,1.0,1.0,69,0.00,,,0.00,Wunderground v.1.15,2013-02-12 11:52:00,
2013-02-12 04:54:00,20.5,11.9,30.44,NNE,14,1.0,2.0,69,0.00,,,0.00,Wunderground v.1.15,2013-02-12 11:54:00,
2013-02-12 04:58:00,20.5,11.6,30.44,NNE,14,1.0,2.0,68,0.00,,,0.00,Wunderground v.1.15,2013-02-12 11:58:00,
2013-02-12 05:00:00,20.5,11.3,30.45,NNE,14,1.0,1.0,67,0.00,,,0.00,Wunderground v.1.15,2013-02-12 12:00:00,
2013-02-12 05:02:00,20.3,11.1,30.45,NNE,13,1.0,1.0,67,0.00,,,0.00,Wunderground v.1.15,2013-02-12 12:02:00,
2013-02-12 05:04:00,20.3,10.7,30.45,NNE,14,1.0,1.0,66,0.00,,,0.00,Wunderground v.1.15,2013-02-12 12:04:00,
2013-02-12 05:06:00,20.3,10.7,30.45,NNE,12,1.0,4.0,66,0.00,,,0.00,Wunderground v.1.15,2013-02-12 12:06:00,
2013-02-12 05:10:00,20.3,10.7,30.45,North,5,1.0,1.0,66,0.00,,,0.00,Wunderground v.1.15,2013-02-12 12:10:00,
2013-02-12 05:12:00,20.3,10.7,30.45,North,5,1.0,1.0,66,0.00,,,0.00,Wunderground v.1.15,2013-02-12 12:12:00,
2013-02-12 05:14:00,20.3,10.7,30.45,North,5,1.0,1.0,66,0.00,,,0.00,Wunderground v.1.15,2013-02-12 12:14:00,
2013-02-12 05:16:00,20.3,10.4,30.47,North,5,1.0,1.0,65,0.00,,,0.00,Wunderground v.1.15,2013-02-12 12:16:00,
2013-02-12 05:18:00,20.3,10.4,30.47,NNE,21,1.0,2.0,65,0.00,,,0.00,Wunderground v.1.15,2013-02-12 12:18:00,
2013-02-12 05:20:00,20.3,10.4,30.47,North,5,1.0,2.0,65,0.00,,,0.00,Wunderground v.1.15,2013-02-12 12:20:00,
2013-02-12 05:24:00,20.3,10.4,30.47,North,5,1.0,2.0,65,0.00,,,0.00,Wunderground v.1.15,2013-02-12 12:24:00,
2013-02-12 05:26:00,20.3,10.1,30.47,North,5,1.0,2.0,64,0.00,,,0.00,Wunderground v.1.15,2013-02-12 12:26:00,
2013-02-12 05:28:00,20.3,10.1,30.47,North,5,1.0,2.0,64,0.00,,,0.00,Wunderground v.1.15,2013-02-12 12:28:00,
2013-02-12 05:30:00,20.2,9.6,30.47,North,5,1.0,1.0,63,0.00,,,0.00,Wunderground v.1.15,2013-02-12 12:30:00,
2013-02-12 05:32:00,20.2,9.6,30.48,North,5,1.0,1.0,63,0.00,,,0.00,Wunderground v.1.15,2013-02-12 12:32:00,
2013-02-12 05:36:00,20.2,9.6,30.48,North,5,0.0,1.0,63,0.00,,,0.00,Wunderground v.1.15,2013-02-12 12:36:00,
2013-02-12 05:38:00,20.2,9.6,30.48,North,5,0.0,1.0,63,0.00,,,0.00,Wunderground v.1.15,2013-02-12 12:38:00,
2013-02-12 05:40:00,20.2,9.6,30.48,North,5,0.0,0.0,63,0.00,,,0.00,Wunderground v.1.15,2013-02-12 12:40:00,
2013-02-12 05:42:00,20.0,9.4,30.48,North,5,0.0,0.0,63,0.00,,,0.00,Wunderground v.1.15,2013-02-12 12:42:00,
2013-02-12 05:46:00,20.0,9.8,30.47,North,5,0.0,0.0,64,0.00,,,0.00,Wunderground v.1.15,2013-02-12 12:46:00,
2013-02-12 05:48:00,20.0,9.8,30.47,North,5,0.0,0.0,64,0.00,,,0.00,Wunderground v.1.15,2013-02-12 12:48:00,
2013-02-12 05:50:00,19.9,9.7,30.47,North,5,0.0,0.0,64,0.00,,,0.00,Wunderground v.1.15,2013-02-12 12:50:00,
2013-02-12 05:52:00,19.9,9.7,30.47,North,5,0.0,0.0,64,0.00,,,0.00,Wunderground v.1.15,2013-02-12 12:52:00,
2013-02-12 05:56:00,19.7,9.5,30.47,North,5,0.0,0.0,64,0.00,,,0.00,Wunderground v.1.15,2013-02-12 12:56:00,
2013-02-12 05:58:00,19.7,9.5,30.47,North,5,0.0,0.0,64,0.00,,,0.00,Wunderground v.1.15,2013-02-12 12:58:00,
2013-02-12 06:04:00,19.7,9.8,30.48,North,5,0.0,0.0,65,0.00,,,0.00,Wunderground v.1.15,2013-02-12 13:04:00,
2013-02-12 06:08:00,19.7,9.8,30.48,North,5,0.0,0.0,65,0.00,,,0.00,Wunderground v.1.15,2013-02-12 13:08:00,
2013-02-12 06:10:00,19.7,9.8,30.48,North,5,0.0,0.0,65,0.00,,,0.00,Wunderground v.1.15,2013-02-12 13:10:00,
2013-02-12 06:14:00,19.7,9.8,30.48,North,5,0.0,0.0,65,0.00,,,0.00,Wunderground v.1.15,2013-02-12 13:14:00,
2013-02-12 06:16:00,19.7,10.2,30.48,North,5,0.0,0.0,66,0.00,,,0.00,Wunderground v.1.15,2013-02-12 13:16:00,
2013-02-12 06:18:00,19.7,10.2,30.48,North,5,0.0,0.0,66,0.00,,,0.00,Wunderground v.1.15,2013-02-12 13:18:00,
2013-02-12 06:20:00,19.7,10.2,30.48,North,5,0.0,0.0,66,0.00,,,0.00,Wunderground v.1.15,2013-02-12 13:20:00,
2013-02-12 06:24:00,19.7,10.5,30.48,North,5,0.0,0.0,67,0.00,,,0.00,Wunderground v.1.15,2013-02-12 13:24:00,
2013-02-12 06:26:00,19.7,10.5,30.48,North,5,0.0,0.0,67,0.00,,,0.00,Wunderground v.1.15,2013-02-12 13:26:00,
2013-02-12 06:28:00,19.7,10.5,30.48,North,5,0.0,0.0,67,0.00,,,0.00,Wunderground v.1.15,2013-02-12 13:28:00,
2013-02-12 06:30:00,19.7,10.5,30.48,North,5,0.0,0.0,67,0.00,,,0.00,Wunderground v.1.15,2013-02-12 13:30:00,
2013-02-12 06:34:00,19.7,10.5,30.48,North,5,0.0,0.0,67,0.00,,,0.00,Wunderground v.1.15,2013-02-12 13:34:00,
2013-02-12 06:38:00,19.7,10.5,30.48,North,5,0.0,0.0,67,0.00,,,0.00,Wunderground v.1.15,2013-02-12 13:38:00,
2013-02-12 06:40:00,19.7,10.5,30.48,North,5,0.0,0.0,67,0.00,,,0.00,Wunderground v.1.15,2013-02-12 13:40:00,
2013-02-12 06:44:00,19.7,10.2,30.48,North,5,0.0,0.0,66,0.00,,,0.00,Wunderground v.1.15,2013-02-12 13:44:00,
2013-02-12 06:48:00,19.7,9.8,30.49,North,5,0.0,0.0,65,0.00,,,0.00,Wunderground v.1.15,2013-02-12 13:48:00,
2013-02-12 06:50:00,19.9,10.0,30.49,North,5,0.0,0.0,65,0.00,,,0.00,Wunderground v.1.15,2013-02-12 13:50:00,
2013-02-12 06:52:00,19.9,10.0,30.49,North,5,0.0,0.0,65,0.00,,,0.00,Wunderground v.1.15,2013-02-12 13:52:00,
2013-02-12 06:56:00,19.9,10.0,30.49,North,5,0.0,0.0,65,0.00,,,0.00,Wunderground v.1.15,2013-02-12 13:56:00,
2013-02-12 06:58:00,19.9,10.0,30.49,North,5,0.0,0.0,65,0.00,,,0.00,Wunderground v.1.15,2013-02-12 13:58:00,
2013-02-12 07:00:00,20.0,10.1,30.49,North,5,0.0,0.0,65,0.00,,,0.00,Wunderground v.1.15,2013-02-12 14:00:00,
2013-02-12 07:02:00,20.0,9.8,30.49,North,5,0.0,0.0,64,0.00,,,0.00,Wunderground v.1.15,2013-02-12 14:02:00,
2013-02-12 07:06:00,20.0,9.8,30.49,North,5,0.0,0.0,64,0.00,,,0.00,Wunderground v.1.15,2013-02-12 14:06:00,
2013-02-12 07:08:00,20.0,9.8,30.49,North,5,0.0,0.0,64,0.00,,,0.00,Wunderground v.1.15,2013-02-12 14:08:00,
2013-02-12 07:12:00,20.0,9.8,30.49,North,5,0.0,0.0,64,0.00,,,0.00,Wunderground v.1.15,2013-02-12 14:12:00,
2013-02-12 07:14:00,20.2,10.0,30.49,North,5,0.0,0.0,64,0.00,,,0.00,Wunderground v.1.15,2013-02-12 14:14:00,
2013-02-12 07:16:00,20.2,10.0,30.50,North,5,0.0,0.0,64,0.00,,,0.00,Wunderground v.1.15,2013-02-12 14:16:00,
2013-02-12 07:18:00,20.2,10.0,30.50,North,5,0.0,0.0,64,0.00,,,0.00,Wunderground v.1.15,2013-02-12 14:18:00,
2013-02-12 07:20:00,20.2,10.0,30.50,North,5,0.0,0.0,64,0.00,,,0.00,Wunderground v.1.15,2013-02-12 14:20:00,
2013-02-12 07:22:00,20.2,9.6,30.50,North,5,0.0,0.0,63,0.00,,,0.00,Wunderground v.1.15,2013-02-12 14:22:00,
2013-02-12 07:24:00,20.2,10.0,30.50,North,5,0.0,0.0,64,0.00,,,0.00,Wunderground v.1.15,2013-02-12 14:24:00,
2013-02-12 07:28:00,20.2,9.6,30.50,North,5,0.0,0.0,63,0.00,,,0.00,Wunderground v.1.15,2013-02-12 14:28:00,
2013-02-12 07:30:00,20.3,10.1,30.50,North,5,0.0,0.0,64,0.00,,,0.00,Wunderground v.1.15,2013-02-12 14:30:00,
2013-02-12 07:32:00,20.3,10.7,30.50,North,5,0.0,0.0,66,0.00,,,0.00,Wunderground v.1.15,2013-02-12 14:32:00,
2013-02-12 07:36:00,20.3,11.1,30.50,North,5,1.0,2.0,67,0.00,,,0.00,Wunderground v.1.15,2013-02-12 14:36:00,
2013-02-12 07:40:00,20.3,11.1,30.50,North,5,1.0,3.0,67,0.00,,,0.00,Wunderground v.1.15,2013-02-12 14:40:00,
2013-02-12 07:44:00,20.3,11.1,30.50,North,5,1.0,3.0,67,0.00,,,0.00,Wunderground v.1.15,2013-02-12 14:44:00,
2013-02-12 07:46:00,20.3,11.1,30.51,North,5,1.0,3.0,67,0.00,,,0.00,Wunderground v.1.15,2013-02-12 14:46:00,
2013-02-12 07:48:00,20.3,11.1,30.51,North,5,1.0,3.0,67,0.00,,,0.00,Wunderground v.1.15,2013-02-12 14:48:00,
2013-02-12 07:50:00,20.3,11.1,30.51,North,5,1.0,1.0,67,0.00,,,0.00,Wunderground v.1.15,2013-02-12 14:50:00,
2013-02-12 07:54:00,20.3,11.4,30.51,North,5,0.0,1.0,68,0.00,,,0.00,Wunderground v.1.15,2013-02-12 14:54:00,
2013-02-12 07:56:00,20.5,11.6,30.51,North,5,0.0,1.0,68,0.00,,,0.00,Wunderground v.1.15,2013-02-12 14:56:00,
2013-02-12 08:00:00,20.2,10.6,30.51,NE,42,1.0,1.0,66,0.00,,,0.00,Wunderground v.1.15,2013-02-12 15:00:00,
2013-02-12 08:02:00,20.2,10.6,30.51,NE,42,1.0,1.0,66,0.00,,,0.00,Wunderground v.1.15,2013-02-12 15:02:00,
2013-02-12 08:04:00,20.2,10.6,30.51,NE,42,1.0,1.0,66,0.00,,,0.00,Wunderground v.1.15,2013-02-12 15:04:00,
2013-02-12 08:06:00,20.2,10.6,30.51,NE,42,1.0,1.0,66,0.00,,,0.00,Wunderground v.1.15,2013-02-12 15:06:00,
2013-02-12 08:08:00,20.2,10.6,30.51,NE,42,0.0,1.0,66,0.00,,,0.00,Wunderground v.1.15,2013-02-12 15:08:00,
2013-02-12 08:10:00,20.2,10.6,30.51,NE,42,0.0,0.0,66,0.00,,,0.00,Wunderground v.1.15,2013-02-12 15:10:00,
2013-02-12 08:14:00,20.2,10.6,30.51,NE,42,0.0,0.0,66,0.00,,,0.00,Wunderground v.1.15,2013-02-12 15:14:00,
2013-02-12 08:16:00,20.3,10.7,30.53,NE,42,0.0,1.0,66,0.00,,,0.00,Wunderground v.1.15,2013-02-12 15:16:00,
2013-02-12 08:18:00,20.3,10.7,30.53,NE,42,1.0,1.0,66,0.00,,,0.00,Wunderground v.1.15,2013-02-12 15:18:00,
2013-02-12 08:22:00,20.3,10.7,30.53,NE,42,0.0,1.0,66,0.00,,,0.00,Wunderground v.1.15,2013-02-12 15:22:00,
2013-02-12 08:26:00,20.3,10.4,30.53,NE,40,1.0,1.0,65,0.00,,,0.00,Wunderground v.1.15,2013-02-12 15:26:00,
2013-02-12 08:28:00,20.3,10.1,30.53,NE,38,1.0,3.0,64,0.00,,,0.00,Wunderground v.1.15,2013-02-12 15:28:00,
2013-02-12 08:32:00,20.3,9.3,30.54,North,5,2.0,2.0,62,0.00,,,0.00,Wunderground v.1.15,2013-02-12 15:32:00,
2013-02-12 08:34:00,20.3,9.3,30.54,NNE,16,2.0,2.0,62,0.00,,,0.00,Wunderground v.1.15,2013-02-12 15:34:00,
2013-02-12 08:38:00,20.3,9.3,30.54,NNE,12,2.0,2.0,62,0.00,,,0.00,Wunderground v.1.15,2013-02-12 15:38:00,
2013-02-12 08:42:00,20.5,10.2,30.54,NNE,13,1.0,1.0,64,0.00,,,0.00,Wunderground v.1.15,2013-02-12 15:42:00,
2013-02-12 08:44:00,20.6,10.3,30.54,NW,324,1.0,1.0,64,0.00,,,0.00,Wunderground v.1.15,2013-02-12 15:44:00,
2013-02-12 08:46:00,20.6,10.3,30.53,NW,324,1.0,1.0,64,0.00,,,0.00,Wunderground v.1.15,2013-02-12 15:46:00,
2013-02-12 08:48:00,20.6,10.3,30.53,NW,324,1.0,1.0,64,0.00,,,0.00,Wunderground v.1.15,2013-02-12 15:48:00,
2013-02-12 08:50:00,20.6,10.7,30.53,NNE,24,1.0,2.0,65,0.00,,,0.00,Wunderground v.1.15,2013-02-12 15:50:00,
2013-02-12 08:54:00,20.8,10.9,30.53,NNE,25,1.0,3.0,65,0.00,,,0.00,Wunderground v.1.15,2013-02-12 15:54:00,
2013-02-12 08:56:00,20.8,10.5,30.53,NNE,25,1.0,3.0,64,0.00,,,0.00,Wunderground v.1.15,2013-02-12 15:56:00,
2013-02-12 09:02:00,21.0,11.1,30.53,NNE,21,1.0,3.0,65,0.00,,,0.00,Wunderground v.1.15,2013-02-12 16:02:00,
2013-02-12 09:04:00,21.0,10.7,30.53,NNE,21,1.0,3.0,64,0.00,,,0.00,Wunderground v.1.15,2013-02-12 16:04:00,
2013-02-12 09:06:00,21.1,10.5,30.53,NNE,22,1.0,3.0,63,0.00,,,0.00,Wunderground v.1.15,2013-02-12 16:06:00,
2013-02-12 09:10:00,21.1,10.5,30.53,NNE,22,1.0,1.0,63,0.00,,,0.00,Wunderground v.1.15,2013-02-12 16:10:00,
2013-02-12 09:14:00,21.3,10.3,30.53,NNE,22,1.0,1.0,62,0.00,,,0.00,Wunderground v.1.15,2013-02-12 16:14:00,
2013-02-12 09:16:00,21.4,10.4,30.55,NNE,22,1.0,1.0,62,0.00,,,0.00,Wunderground v.1.15,2013-02-12 16:16:00,
2013-02-12 09:22:00,21.9,11.6,30.55,NNE,23,0.0,1.0,64,0.00,,,0.00,Wunderground v.1.15,2013-02-12 16:22:00,
2013-02-12 09:24:00,21.9,11.2,30.55,NNE,32,0.0,1.0,63,0.00,,,0.00,Wunderground v.1.15,2013-02-12 16:24:00,
2013-02-12 09:28:00,22.4,11.3,30.55,NNE,32,0.0,1.0,62,0.00,,,0.00,Wunderground v.1.15,2013-02-12 16:28:00,
2013-02-12 09:30:00,22.4,11.3,30.53,NNE,31,0.0,0.0,62,0.00,,,0.00,Wunderground v.1.15,2013-02-12 16:30:00,
2013-02-12 09:32:00,22.5,11.4,30.53,NNE,32,0.0,0.0,62,0.00,,,0.00,Wunderground v.1.15,2013-02-12 16:32:00,
2013-02-12 09:36:00,22.9,11.8,30.53,NNE,14,1.0,1.0,62,0.00,,,0.00,Wunderground v.1.15,2013-02-12 16:36:00,
2013-02-12 09:38:00,22.9,11.4,30.53,NNE,14,1.0,1.0,61,0.00,,,0.00,Wunderground v.1.15,2013-02-12 16:38:00,
2013-02-12 09:44:00,22.9,11.1,30.53,NNE,13,1.0,2.0,60,0.00,,,0.00,Wunderground v.1.15,2013-02-12 16:44:00,
2013-02-12 09:46:00,22.7,10.5,30.54,NNE,12,1.0,2.0,59,0.00,,,0.00,Wunderground v.1.15,2013-02-12 16:46:00,
2013-02-12 09:48:00,22.7,11.3,30.54,NNE,30,1.0,3.0,61,0.00,,,0.00,Wunderground v.1.15,2013-02-12 16:48:00,
2013-02-12 09:50:00,22.7,10.9,30.54,NNE,31,1.0,1.0,60,0.00,,,0.00,Wunderground v.1.15,2013-02-12 16:50:00,
2013-02-12 09:52:00,23.0,11.5,30.54,NNE,31,1.0,1.0,61,0.00,,,0.00,Wunderground v.1.15,2013-02-12 16:52:00,
2013-02-12 09:56:00,23.5,11.6,30.54,NNE,31,0.0,1.0,60,0.00,,,0.00,Wunderground v.1.15,2013-02-12 16:56:00,
2013-02-12 09:58:00,23.6,11.4,30.54,NNE,12,1.0,1.0,59,0.00,,,0.00,Wunderground v.1.15,2013-02-12 16:58:00,
2013-02-12 10:04:00,23.6,11.4,30.53,NNE,13,1.0,4.0,59,0.00,,,0.00,Wunderground v.1.15,2013-02-12 17:04:00,
2013-02-12 10:06:00,23.5,10.9,30.53,NNE,13,1.0,4.0,58,0.00,,,0.00,Wunderground v.1.15,2013-02-12 17:06:00,
2013-02-12 10:08:00,23.6,11.4,30.53,NNE,14,1.0,4.0,59,0.00,,,0.00,Wunderground v.1.15,2013-02-12 17:08:00,
2013-02-12 10:12:00,24.2,11.1,30.53,NNE,14,0.0,1.0,57,0.00,,,0.00,Wunderground v.1.15,2013-02-12 17:12:00,
2013-02-12 10:14:00,24.2,11.1,30.53,NNE,14,0.0,1.0,57,0.00,,,0.00,Wunderground v.1.15,2013-02-12 17:14:00,
2013-02-12 10:18:00,24.1,10.6,30.53,NNE,14,0.0,1.0,56,0.00,,,0.00,Wunderground v.1.15,2013-02-12 17:18:00,
2013-02-12 10:22:00,23.6,10.2,30.53,SE,130,0.0,2.0,56,0.00,,,0.00,Wunderground v.1.15,2013-02-12 17:22:00,
2013-02-12 10:24:00,23.5,10.9,30.53,SE,130,1.0,2.0,58,0.00,,,0.00,Wunderground v.1.15,2013-02-12 17:24:00,
2013-02-12 10:26:00,23.3,10.7,30.53,ENE,71,1.0,2.0,58,0.00,,,0.00,Wunderground v.1.15,2013-02-12 17:26:00,
2013-02-12 10:28:00,23.3,9.9,30.53,ESE,109,1.0,2.0,56,0.00,,,0.00,Wunderground v.1.15,2013-02-12 17:28:00,
2013-02-12 10:34:00,23.2,10.2,30.54,East,100,0.0,2.0,57,0.00,,,0.00,Wunderground v.1.15,2013-02-12 17:34:00,
2013-02-12 10:36:00,23.2,10.6,30.54,East,100,0.0,2.0,58,0.00,,,0.00,Wunderground v.1.15,2013-02-12 17:36:00,
2013-02-12 10:38:00,23.3,10.3,30.54,ENE,67,0.0,3.0,57,0.00,,,0.00,Wunderground v.1.15,2013-02-12 17:38:00,
2013-02-12 10:40:00,23.5,10.5,30.54,NNE,26,0.0,3.0,57,0.00,,,0.00,Wunderground v.1.15,2013-02-12 17:40:00,
2013-02-12 10:44:00,23.8,10.8,30.54,NNE,26,1.0,3.0,57,0.00,,,0.00,Wunderground v.1.15,2013-02-12 17:44:00,
2013-02-12 10:46:00,24.1,10.2,30.52,NNE,26,1.0,3.0,55,0.00,,,0.00,Wunderground v.1.15,2013-02-12 17:46:00,
2013-02-12 10:48:00,24.5,11.4,30.52,NE,43,1.0,3.0,57,0.00,,,0.00,Wunderground v.1.15,2013-02-12 17:48:00,
2013-02-12 10:50:00,25.0,11.9,30.52,NE,42,1.0,2.0,57,0.00,,,0.00,Wunderground v.1.15,2013-02-12 17:50:00,
2013-02-12 10:52:00,25.3,11.4,30.52,NE,44,0.0,4.0,55,0.00,,,0.00,Wunderground v.1.15,2013-02-12 17:52:00,
2013-02-12 10:54:00,25.1,10.8,30.52,NE,44,1.0,4.0,54,0.00,,,0.00,Wunderground v.1.15,2013-02-12 17:54:00,
2013-02-12 10:56:00,25.0,10.7,30.52,NE,34,2.0,4.0,54,0.00,,,0.00,Wunderground v.1.15,2013-02-12 17:56:00,
2013-02-12 11:02:00,26.0,12.4,30.51,NE,41,1.0,2.0,56,0.00,,,0.00,Wunderground v.1.15,2013-02-12 18:02:00,
2013-02-12 11:04:00,25.8,11.0,30.51,NE,41,1.0,2.0,53,0.00,,,0.00,Wunderground v.1.15,2013-02-12 18:04:00,
2013-02-12 11:06:00,26.0,10.3,30.51,NE,41,1.0,2.0,51,0.00,,,0.00,Wunderground v.1.15,2013-02-12 18:06:00,
2013-02-12 11:10:00,26.0,10.3,30.51,WNW,284,1.0,1.0,51,0.00,,,0.00,Wunderground v.1.15,2013-02-12 18:10:00,
2013-02-12 11:12:00,25.8,10.6,30.51,WNW,284,0.0,1.0,52,0.00,,,0.00,Wunderground v.1.15,2013-02-12 18:12:00,
2013-02-12 11:16:00,25.8,11.4,30.51,WNW,283,0.0,2.0,54,0.00,,,0.00,Wunderground v.1.15,2013-02-12 18:16:00,
2013-02-12 11:18:00,25.8,11.0,30.51,WNW,284,0.0,2.0,53,0.00,,,0.00,Wunderground v.1.15,2013-02-12 18:18:00,
2013-02-12 11:22:00,26.1,10.9,30.51,WNW,284,0.0,0.0,52,0.00,,,0.00,Wunderground v.1.15,2013-02-12 18:22:00,
2013-02-12 11:24:00,26.1,10.9,30.51,WSW,242,0.0,2.0,52,0.00,,,0.00,Wunderground v.1.15,2013-02-12 18:24:00,
2013-02-12 11:28:00,26.1,10.9,30.51,SSW,209,1.0,2.0,52,0.00,,,0.00,Wunderground v.1.15,2013-02-12 18:28:00,
2013-02-12 11:30:00,26.4,10.3,30.51,SSW,209,1.0,1.0,50,0.00,,,0.00,Wunderground v.1.15,2013-02-12 18:30:00,
2013-02-12 11:36:00,26.7,10.5,30.51,SSW,210,1.0,1.0,50,0.00,,,0.00,Wunderground v.1.15,2013-02-12 18:36:00,
2013-02-12 11:38:00,26.7,10.1,30.51,SSW,209,1.0,1.0,49,0.00,,,0.00,Wunderground v.1.15,2013-02-12 18:38:00,
2013-02-12 11:42:00,27.0,10.8,30.51,SSW,210,1.0,1.0,50,0.00,,,0.00,Wunderground v.1.15,2013-02-12 18:42:00,
2013-02-12 11:44:00,27.2,11.0,30.51,North,5,1.0,3.0,50,0.00,,,0.00,Wunderground v.1.15,2013-02-12 18:44:00,
2013-02-12 11:48:00,26.9,10.7,30.49,NNE,19,1.0,3.0,50,0.00,,,0.00,Wunderground v.1.15,2013-02-12 18:48:00,
2013-02-12 11:50:00,26.9,10.3,30.49,NNE,19,2.0,2.0,49,0.00,,,0.00,Wunderground v.1.15,2013-02-12 18:50:00,
2013-02-12 11:52:00,27.0,10.8,30.49,NNE,19,2.0,2.0,50,0.00,,,0.00,Wunderground v.1.15,2013-02-12 18:52:00,
2013-02-12 11:54:00,27.2,10.5,30.49,NE,38,2.0,2.0,49,0.00,,,0.00,Wunderground v.1.15,2013-02-12 18:54:00,
2013-02-12 11:56:00,27.0,9.9,30.49,NNE,27,2.0,2.0,48,0.00,,,0.00,Wunderground v.1.15,2013-02-12 18:56:00,
2013-02-12 12:01:00,26.7,10.1,30.48,ENE,74,2.0,3.0,49,0.00,,,0.00,Wunderground v.1.15,2013-02-12 19:01:00,
2013-02-12 12:02:00,26.7,10.1,30.48,ENE,73,2.0,3.0,49,0.00,,,0.00,Wunderground v.1.15,2013-02-12 19:02:00,
2013-02-12 12:04:00,26.7,10.5,30.48,ESE,103,2.0,3.0,50,0.00,,,0.00,Wunderground v.1.15,2013-02-12 19:04:00,
2013-02-12 12:08:00,27.2,10.1,30.48,SE,134,2.0,3.0,48,0.00,,,0.00,Wunderground v.1.15,2013-02-12 19:08:00,
2013-02-12 12:10:00,27.3,10.2,30.48,SE,127,2.0,3.0,48,0.00,,,0.00,Wunderground v.1.15,2013-02-12 19:10:00,
2013-02-12 12:12:00,27.3,9.7,30.48,ESE,122,2.0,3.0,47,0.00,,,0.00,Wunderground v.1.15,2013-02-12 19:12:00,
2013-02-12 12:14:00,27.3,9.7,30.48,ESE,118,2.0,3.0,47,0.00,,,0.00,Wunderground v.1.15,2013-02-12 19:14:00,
2013-02-12 12:18:00,27.8,9.7,30.48,ESE,121,1.0,3.0,46,0.00,,,0.00,Wunderground v.1.15,2013-02-12 19:18:00,
2013-02-12 12:20:00,28.2,11.0,30.48,ESE,121,1.0,1.0,48,0.00,,,0.00,Wunderground v.1.15,2013-02-12 19:20:00,
2013-02-12 12:24:00,28.4,10.7,30.48,NE,43,1.0,4.0,47,0.00,,,0.00,Wunderground v.1.15,2013-02-12 19:24:00,
2013-02-12 12:26:00,28.5,11.3,30.48,NNE,28,1.0,4.0,48,0.00,,,0.00,Wunderground v.1.15,2013-02-12 19:26:00,
2013-02-12 12:32:00,28.4,10.2,30.45,ENE,77,2.0,2.0,46,0.00,,,0.00,Wunderground v.1.15,2013-02-12 19:32:00,
2013-02-12 12:34:00,28.4,10.2,30.45,East,82,1.0,2.0,46,0.00,,,0.00,Wunderground v.1.15,2013-02-12 19:34:00,
2013-02-12 12:40:00,28.7,10.5,30.45,SE,128,1.0,3.0,46,0.00,,,0.00,Wunderground v.1.15,2013-02-12 19:40:00,
2013-02-12 12:42:00,29.0,10.8,30.45,SE,128,1.0,5.0,46,0.00,,,0.00,Wunderground v.1.15,2013-02-12 19:42:00,
2013-02-12 12:46:00,29.3,11.1,30.45,ESE,115,2.0,5.0,46,0.00,,,0.00,Wunderground v.1.15,2013-02-12 19:46:00,
2013-02-12 12:48:00,29.4,10.1,30.45,ESE,115,1.0,5.0,44,0.00,,,0.00,Wunderground v.1.15,2013-02-12 19:48:00,
2013-02-12 12:50:00,29.5,10.2,30.45,NNE,14,1.0,5.0,44,0.00,,,0.00,Wunderground v.1.15,2013-02-12 19:50:00,
2013-02-12 12:52:00,29.5,10.2,30.45,NNE,14,1.0,1.0,44,0.00,,,0.00,Wunderground v.1.15,2013-02-12 19:52:00,
2013-02-12 12:54:00,29.7,10.4,30.45,NNE,20,1.0,2.0,44,0.00,,,0.00,Wunderground v.1.15,2013-02-12 19:54:00,
2013-02-12 12:56:00,29.7,10.4,30.45,NNE,20,1.0,2.0,44,0.00,,,0.00,Wunderground v.1.15,2013-02-12 19:56:00,
2013-02-12 12:58:00,29.7,10.9,30.45,ESE,103,1.0,2.0,45,0.00,,,0.00,Wunderground v.1.15,2013-02-12 19:58:00,
2013-02-12 13:02:00,29.5,10.2,30.44,NNW,348,2.0,4.0,44,0.00,,,0.00,Wunderground v.1.15,2013-02-12 20:02:00,
2013-02-12 13:04:00,29.5,9.2,30.44,North,355,1.0,4.0,42,0.00,,,0.00,Wunderground v.1.15,2013-02-12 20:04:00,
2013-02-12 13:06:00,29.4,9.1,30.44,North,355,1.0,4.0,42,0.00,,,0.00,Wunderground v.1.15,2013-02-12 20:06:00,
2013-02-12 13:08:00,29.4,9.1,30.44,North,32767,1.0,4.0,42,0.00,,,0.00,Wunderground v.1.15,2013-02-12 20:08:00,
2013-02-12 13:10:00,29.4,8.6,30.44,North,32767,1.0,4.0,41,0.00,,,0.00,Wunderground v.1.15,2013-02-12 20:10:00,
2013-02-12 13:12:00,29.5,9.2,30.44,North,355,1.0,2.0,42,0.00,,,0.00,Wunderground v.1.15,2013-02-12 20:12:00,
2013-02-12 13:14:00,29.5,7.5,30.44,North,5,1.0,2.0,39,0.00,,,0.00,Wunderground v.1.15,2013-02-12 20:14:00,
2013-02-12 13:16:00,29.5,8.1,30.44,North,5,0.0,2.0,40,0.00,,,0.00,Wunderground v.1.15,2013-02-12 20:16:00,
2013-02-12 13:18:00,29.4,7.5,30.44,NNW,343,1.0,4.0,39,0.00,,,0.00,Wunderground v.1.15,2013-02-12 20:18:00,
2013-02-12 13:22:00,29.1,7.7,30.44,NNE,24,1.0,4.0,40,0.00,,,0.00,Wunderground v.1.15,2013-02-12 20:22:00,
2013-02-12 13:26:00,29.4,7.5,30.44,NNE,28,2.0,4.0,39,0.00,,,0.00,Wunderground v.1.15,2013-02-12 20:26:00,
2013-02-12 13:28:00,29.4,7.5,30.44,NNW,328,2.0,4.0,39,0.00,,,0.00,Wunderground v.1.15,2013-02-12 20:28:00,
2013-02-12 13:30:00,29.7,7.7,30.44,NE,40,2.0,4.0,39,0.00,,,0.00,Wunderground v.1.15,2013-02-12 20:30:00,
2013-02-12 13:32:00,29.8,7.8,30.44,ENE,61,2.0,2.0,39,0.00,,,0.00,Wunderground v.1.15,2013-02-12 20:32:00,
2013-02-12 13:36:00,29.8,5.4,30.44,North,5,2.0,3.0,35,0.00,,,0.00,Wunderground v.1.15,2013-02-12 20:36:00,
2013-02-12 13:40:00,30.6,3.5,30.44,WNW,300,1.0,3.0,31,0.00,,,0.00,Wunderground v.1.15,2013-02-12 20:40:00,
2013-02-12 13:42:00,31.0,4.5,30.44,WNW,302,1.0,1.0,32,0.00,,,0.00,Wunderground v.1.15,2013-02-12 20:42:00,
2013-02-12 13:44:00,31.2,4.0,30.44,NW,309,1.0,1.0,31,0.00,,,0.00,Wunderground v.1.15,2013-02-12 20:44:00,
2013-02-12 13:46:00,31.2,4.0,30.43,NW,305,1.0,5.0,31,0.00,,,0.00,Wunderground v.1.15,2013-02-12 20:46:00,
2013-02-12 13:48:00,31.2,1.8,30.43,NW,321,1.0,6.0,28,0.00,,,0.00,Wunderground v.1.15,2013-02-12 20:48:00,
2013-02-12 13:50:00,31.0,2.4,30.43,WNW,296,2.0,6.0,29,0.00,,,0.00,Wunderground v.1.15,2013-02-12 20:50:00,
2013-02-12 13:52:00,30.9,3.0,30.43,NNW,332,3.0,3.0,30,0.00,,,0.00,Wunderground v.1.15,2013-02-12 20:52:00,
2013-02-12 13:54:00,30.9,4.4,30.43,North,32767,3.0,3.0,32,0.00,,,0.00,Wunderground v.1.15,2013-02-12 20:54:00,
2013-02-12 13:56:00,30.7,4.9,30.43,NNW,341,3.0,3.0,33,0.00,,,0.00,Wunderground v.1.15,2013-02-12 20:56:00,
2013-02-12 13:58:00,30.7,4.9,30.43,North,10,3.0,3.0,33,0.00,,,0.00,Wunderground v.1.15,2013-02-12 20:58:00,
2013-02-12 14:00:00,30.6,4.2,30.43,NW,306,3.0,3.0,32,0.00,,,0.00,Wunderground v.1.15,2013-02-12 21:00:00,
2013-02-12 14:04:00,30.6,3.5,30.43,NW,320,2.0,4.0,31,0.00,,,0.00,Wunderground v.1.15,2013-02-12 21:04:00,
2013-02-12 14:06:00,30.6,3.5,30.43,NW,320,2.0,4.0,31,0.00,,,0.00,Wunderground v.1.15,2013-02-12 21:06:00,
2013-02-12 14:08:00,30.6,4.2,30.43,NW,313,2.0,4.0,32,0.00,,,0.00,Wunderground v.1.15,2013-02-12 21:08:00,
2013-02-12 14:12:00,31.0,3.8,30.43,SW,216,2.0,5.0,31,0.00,,,0.00,Wunderground v.1.15,2013-02-12 21:12:00,
2013-02-12 14:14:00,31.3,4.1,30.43,NW,311,2.0,5.0,31,0.00,,,0.00,Wunderground v.1.15,2013-02-12 21:14:00,
2013-02-12 14:18:00,31.2,3.3,30.44,NW,306,3.0,5.0,30,0.00,,,0.00,Wunderground v.1.15,2013-02-12 21:18:00,
2013-02-12 14:20:00,31.0,3.8,30.44,NW,311,4.0,4.0,31,0.00,,,0.00,Wunderground v.1.15,2013-02-12 21:20:00,
2013-02-12 14:22:00,31.0,4.5,30.44,NW,311,4.0,4.0,32,0.00,,,0.00,Wunderground v.1.15,2013-02-12 21:22:00,
2013-02-12 14:26:00,31.2,5.4,30.44,West,279,3.0,4.0,33,0.00,,,0.00,Wunderground v.1.15,2013-02-12 21:26:00,
2013-02-12 14:28:00,31.3,4.8,30.44,NW,313,2.0,4.0,32,0.00,,,0.00,Wunderground v.1.15,2013-02-12 21:28:00,
2013-02-12 14:30:00,31.3,6.1,30.44,NNW,348,2.0,7.0,34,0.00,,,0.00,Wunderground v.1.15,2013-02-12 21:30:00,
2013-02-12 14:36:00,31.2,6.0,30.44,NNE,20,3.0,7.0,34,0.00,,,0.00,Wunderground v.1.15,2013-02-12 21:36:00,
2013-02-12 14:38:00,31.0,5.9,30.44,NNE,18,4.0,7.0,34,0.00,,,0.00,Wunderground v.1.15,2013-02-12 21:38:00,
2013-02-12 14:42:00,31.3,6.1,30.44,North,32767,3.0,4.0,34,0.00,,,0.00,Wunderground v.1.15,2013-02-12 21:42:00,
2013-02-12 14:44:00,31.5,6.3,30.44,NNE,30,3.0,4.0,34,0.00,,,0.00,Wunderground v.1.15,2013-02-12 21:44:00,
2013-02-12 14:48:00,31.2,6.0,30.43,North,5,4.0,6.0,34,0.00,,,0.00,Wunderground v.1.15,2013-02-12 21:48:00,
2013-02-12 14:50:00,31.2,6.0,30.43,NNE,18,4.0,4.0,34,0.00,,,0.00,Wunderground v.1.15,2013-02-12 21:50:00,
2013-02-12 14:54:00,31.3,6.1,30.43,NW,309,4.0,4.0,34,0.00,,,0.00,Wunderground v.1.15,2013-02-12 21:54:00,
2013-02-12 14:58:00,31.8,6.6,30.43,NW,309,3.0,4.0,34,0.00,,,0.00,Wunderground v.1.15,2013-02-12 21:58:00,
2013-02-12 15:02:00,31.5,6.3,30.42,NNE,28,3.0,8.0,34,0.00,,,0.00,Wunderground v.1.15,2013-02-12 22:02:00,
2013-02-12 15:04:00,31.2,6.7,30.42,NE,38,3.0,8.0,35,0.00,,,0.00,Wunderground v.1.15,2013-02-12 22:04:00,
2013-02-12 15:06:00,31.2,6.7,30.42,NE,34,3.0,8.0,35,0.00,,,0.00,Wunderground v.1.15,2013-02-12 22:06:00,
2013-02-12 15:08:00,31.5,6.9,30.42,NE,34,2.0,8.0,35,0.00,,,0.00,Wunderground v.1.15,2013-02-12 22:08:00,
2013-02-12 15:10:00,31.8,6.6,30.42,NNE,33,2.0,8.0,34,0.00,,,0.00,Wunderground v.1.15,2013-02-12 22:10:00,
2013-02-12 15:12:00,31.9,6.7,30.42,NNW,344,2.0,3.0,34,0.00,,,0.00,Wunderground v.1.15,2013-02-12 22:12:00,
2013-02-12 15:16:00,31.9,6.0,30.44,NW,325,2.0,5.0,33,0.00,,,0.00,Wunderground v.1.15,2013-02-12 22:16:00,
2013-02-12 15:18:00,32.1,6.2,30.44,NW,317,2.0,5.0,33,0.00,,,0.00,Wunderground v.1.15,2013-02-12 22:18:00,
2013-02-12 15:20:00,32.4,6.4,30.44,NW,321,2.0,5.0,33,0.00,,,0.00,Wunderground v.1.15,2013-02-12 22:20:00,
2013-02-12 15:22:00,32.5,5.9,30.44,NW,322,2.0,2.0,32,0.00,,,0.00,Wunderground v.1.15,2013-02-12 22:22:00,
2013-02-12 15:24:00,32.5,5.2,30.44,NE,39,1.0,2.0,31,0.00,,,0.00,Wunderground v.1.15,2013-02-12 22:24:00,
2013-02-12 15:26:00,32.5,5.2,30.44,North,5,1.0,4.0,31,0.00,,,0.00,Wunderground v.1.15,2013-02-12 22:26:00,
2013-02-12 15:28:00,32.5,5.2,30.44,North,32767,1.0,4.0,31,0.00,,,0.00,Wunderground v.1.15,2013-02-12 22:28:00,
2013-02-12 15:30:00,32.2,4.9,30.44,NNE,13,2.0,4.0,31,0.00,,,0.00,Wunderground v.1.15,2013-02-12 22:30:00,
2013-02-12 15:34:00,32.1,4.8,30.44,NW,321,2.0,2.0,31,0.00,,,0.00,Wunderground v.1.15,2013-02-12 22:34:00,
2013-02-12 15:36:00,32.1,4.1,30.44,NNE,26,2.0,2.0,30,0.00,,,0.00,Wunderground v.1.15,2013-02-12 22:36:00,
2013-02-12 15:40:00,32.1,4.1,30.44,NW,309,1.0,2.0,30,0.00,,,0.00,Wunderground v.1.15,2013-02-12 22:40:00,
2013-02-12 15:42:00,32.4,3.6,30.44,SW,221,1.0,1.0,29,0.00,,,0.00,Wunderground v.1.15,2013-02-12 22:42:00,
2013-02-12 15:44:00,32.7,3.9,30.44,SW,221,1.0,1.0,29,0.00,,,0.00,Wunderground v.1.15,2013-02-12 22:44:00,
2013-02-12 15:48:00,32.8,3.2,30.44,West,264,1.0,3.0,28,0.00,,,0.00,Wunderground v.1.15,2013-02-12 22:48:00,
2013-02-12 15:52:00,32.5,2.9,30.44,NNE,30,1.0,2.0,28,0.00,,,0.00,Wunderground v.1.15,2013-02-12 22:52:00,
2013-02-12 15:54:00,32.2,2.7,30.44,NNE,30,1.0,3.0,28,0.00,,,0.00,Wunderground v.1.15,2013-02-12 22:54:00,
2013-02-12 15:56:00,32.1,2.6,30.44,NNE,30,1.0,3.0,28,0.00,,,0.00,Wunderground v.1.15,2013-02-12 22:56:00,
2013-02-12 16:00:00,32.1,3.4,30.44,NNE,30,1.0,4.0,29,0.00,,,0.00,Wunderground v.1.15,2013-02-12 23:00:00,
2013-02-12 16:04:00,32.1,2.6,30.44,North,32767,0.0,4.0,28,0.00,,,0.00,Wunderground v.1.15,2013-02-12 23:04:00,
2013-02-12 16:06:00,32.2,3.4,30.44,North,32767,0.0,4.0,29,0.00,,,0.00,Wunderground v.1.15,2013-02-12 23:06:00,
2013-02-12 16:08:00,32.2,1.9,30.44,North,32767,0.0,4.0,27,0.00,,,0.00,Wunderground v.1.15,2013-02-12 23:08:00,
2013-02-12 16:10:00,32.2,1.9,30.44,North,32767,0.0,0.0,27,0.00,,,0.00,Wunderground v.1.15,2013-02-12 23:10:00,
2013-02-12 16:12:00,32.2,1.9,30.44,North,32767,0.0,0.0,27,0.00,,,0.00,Wunderground v.1.15,2013-02-12 23:12:00,
2013-02-12 16:14:00,32.2,1.9,30.44,North,32767,0.0,0.0,27,0.00,,,0.00,Wunderground v.1.15,2013-02-12 23:14:00,
2013-02-12 16:16:00,32.4,2.1,30.44,North,32767,0.0,0.0,27,0.00,,,0.00,Wunderground v.1.15,2013-02-12 23:16:00,
2013-02-12 16:18:00,32.4,2.9,30.44,North,32767,0.0,0.0,28,0.00,,,0.00,Wunderground v.1.15,2013-02-12 23:18:00,
2013-02-12 16:22:00,32.4,2.9,30.44,NNW,348,0.0,1.0,28,0.00,,,0.00,Wunderground v.1.15,2013-02-12 23:22:00,
2013-02-12 16:24:00,32.4,2.9,30.44,NNW,348,0.0,2.0,28,0.00,,,0.00,Wunderground v.1.15,2013-02-12 23:24:00,
2013-02-12 16:26:00,32.2,2.7,30.44,NNW,348,1.0,2.0,28,0.00,,,0.00,Wunderground v.1.15,2013-02-12 23:26:00,
2013-02-12 16:30:00,32.1,2.6,30.44,NNW,348,1.0,1.0,28,0.00,,,0.00,Wunderground v.1.15,2013-02-12 23:30:00,
2013-02-12 16:34:00,32.2,3.4,30.44,NNW,348,0.0,1.0,29,0.00,,,0.00,Wunderground v.1.15,2013-02-12 23:34:00,
2013-02-12 16:36:00,32.2,3.4,30.44,NNW,348,0.0,1.0,29,0.00,,,0.00,Wunderground v.1.15,2013-02-12 23:36:00,
2013-02-12 16:40:00,32.1,3.4,30.44,NNW,348,0.0,0.0,29,0.00,,,0.00,Wunderground v.1.15,2013-02-12 23:40:00,
2013-02-12 16:44:00,31.8,3.1,30.44,NNW,348,0.0,1.0,29,0.00,,,0.00,Wunderground v.1.15,2013-02-12 23:44:00,
2013-02-12 16:46:00,31.6,3.7,30.45,NNW,333,0.0,2.0,30,0.00,,,0.00,Wunderground v.1.15,2013-02-12 23:46:00,
2013-02-12 16:50:00,31.5,3.6,30.45,NNW,334,1.0,1.0,30,0.00,,,0.00,Wunderground v.1.15,2013-02-12 23:50:00,
2013-02-12 16:54:00,31.5,3.6,30.45,NNE,30,1.0,3.0,30,0.00,,,0.00,Wunderground v.1.15,2013-02-12 23:54:00,
2013-02-12 16:58:00,31.5,3.6,30.45,WNW,300,1.0,3.0,30,0.00,,,0.00,Wunderground v.1.15,2013-02-12 23:58:00,
2013-02-12 17:00:00,31.5,2.8,30.44,WNW,300,1.0,1.0,29,0.00,,,0.00,Wunderground v.1.15,2013-02-13 00:00:00,
2013-02-12 17:02:00,31.5,2.8,30.44,NW,305,1.0,3.0,29,0.00,,,0.00,Wunderground v.1.15,2013-02-13 00:02:00,
2013-02-12 17:06:00,31.5,4.3,30.44,NW,305,1.0,3.0,31,0.00,,,0.00,Wunderground v.1.15,2013-02-13 00:06:00,
2013-02-12 17:08:00,31.3,4.1,30.44,NW,304,1.0,3.0,31,0.00,,,0.00,Wunderground v.1.15,2013-02-13 00:08:00,
2013-02-12 17:10:00,31.3,4.1,30.44,NW,304,1.0,1.0,31,0.00,,,0.00,Wunderground v.1.15,2013-02-13 00:10:00,
2013-02-12 17:12:00,31.2,4.0,30.44,NW,304,1.0,1.0,31,0.00,,,0.00,Wunderground v.1.15,2013-02-13 00:12:00,
2013-02-12 17:16:00,31.0,4.5,30.46,NW,305,1.0,1.0,32,0.00,,,0.00,Wunderground v.1.15,2013-02-13 00:16:00,
2013-02-12 17:20:00,30.9,4.4,30.46,NW,305,1.0,1.0,32,0.00,,,0.00,Wunderground v.1.15,2013-02-13 00:20:00,
2013-02-12 17:22:00,30.7,4.3,30.46,NW,305,0.0,1.0,32,0.00,,,0.00,Wunderground v.1.15,2013-02-13 00:22:00,
2013-02-12 17:26:00,30.6,5.5,30.46,NW,304,1.0,2.0,34,0.00,,,0.00,Wunderground v.1.15,2013-02-13 00:26:00,
2013-02-12 17:28:00,30.4,5.3,30.46,NW,304,1.0,2.0,34,0.00,,,0.00,Wunderground v.1.15,2013-02-13 00:28:00,
2013-02-12 17:30:00,30.3,5.2,30.46,NW,305,1.0,1.0,34,0.00,,,0.00,Wunderground v.1.15,2013-02-13 00:30:00,
2013-02-12 17:36:00,30.1,5.7,30.46,NW,305,0.0,1.0,35,0.00,,,0.00,Wunderground v.1.15,2013-02-13 00:36:00,
2013-02-12 17:38:00,30.0,5.6,30.46,NNE,15,1.0,2.0,35,0.00,,,0.00,Wunderground v.1.15,2013-02-13 00:38:00,
2013-02-12 17:40:00,29.8,6.1,30.46,NNE,14,1.0,1.0,36,0.00,,,0.00,Wunderground v.1.15,2013-02-13 00:40:00,
2013-02-12 17:42:00,29.7,6.0,30.46,NNE,13,1.0,2.0,36,0.00,,,0.00,Wunderground v.1.15,2013-02-13 00:42:00,
2013-02-12 17:46:00,29.5,5.8,30.46,NNE,13,1.0,2.0,36,0.00,,,0.00,Wunderground v.1.15,2013-02-13 00:46:00,
2013-02-12 17:48:00,29.4,6.3,30.46,NNE,13,1.0,2.0,37,0.00,,,0.00,Wunderground v.1.15,2013-02-13 00:48:00,
2013-02-12 17:50:00,29.3,5.6,30.46,NNE,13,1.0,1.0,36,0.00,,,0.00,Wunderground v.1.15,2013-02-13 00:50:00,
2013-02-12 17:52:00,29.1,5.4,30.46,NNE,13,0.0,1.0,36,0.00,,,0.00,Wunderground v.1.15,2013-02-13 00:52:00,
2013-02-12 17:58:00,29.0,5.9,30.46,NNE,13,0.0,1.0,37,0.00,,,0.00,Wunderground v.1.15,2013-02-13 00:58:00,
2013-02-12 18:02:00,28.8,5.8,30.48,NNE,13,0.0,0.0,37,0.00,,,0.00,Wunderground v.1.15,2013-02-13 01:02:00,
2013-02-12 18:06:00,28.7,6.3,30.48,NNE,13,0.0,0.0,38,0.00,,,0.00,Wunderground v.1.15,2013-02-13 01:06:00,
2013-02-12 18:08:00,28.7,6.3,30.48,NNE,13,0.0,1.0,38,0.00,,,0.00,Wunderground v.1.15,2013-02-13 01:08:00,
2013-02-12 18:10:00,28.5,6.1,30.48,NNE,13,0.0,1.0,38,0.00,,,0.00,Wunderground v.1.15,2013-02-13 01:10:00,
2013-02-12 18:12:00,28.5,6.1,30.48,NNE,13,0.0,0.0,38,0.00,,,0.00,Wunderground v.1.15,2013-02-13 01:12:00,
2013-02-12 18:14:00,28.5,6.1,30.48,NNE,13,0.0,0.0,38,0.00,,,0.00,Wunderground v.1.15,2013-02-13 01:14:00,
2013-02-12 18:20:00,28.4,6.0,30.49,NNE,13,0.0,0.0,38,0.00,,,0.00,Wunderground v.1.15,2013-02-13 01:20:00,
2013-02-12 18:22:00,28.2,6.4,30.49,NNE,13,0.0,0.0,39,0.00,,,0.00,Wunderground v.1.15,2013-02-13 01:22:00,
2013-02-12 18:24:00,28.2,6.4,30.49,NNE,13,0.0,0.0,39,0.00,,,0.00,Wunderground v.1.15,2013-02-13 01:24:00,
2013-02-12 18:28:00,28.1,6.3,30.49,NNE,13,0.0,0.0,39,0.00,,,0.00,Wunderground v.1.15,2013-02-13 01:28:00,
2013-02-12 18:32:00,28.1,6.3,30.49,NNE,13,0.0,0.0,39,0.00,,,0.00,Wunderground v.1.15,2013-02-13 01:32:00,
2013-02-12 18:34:00,28.1,6.3,30.49,NNE,13,0.0,0.0,39,0.00,,,0.00,Wunderground v.1.15,2013-02-13 01:34:00,
2013-02-12 18:36:00,27.9,6.7,30.49,NNE,13,0.0,0.0,40,0.00,,,0.00,Wunderground v.1.15,2013-02-13 01:36:00,
2013-02-12 18:38:00,27.9,6.7,30.49,NNE,13,0.0,0.0,40,0.00,,,0.00,Wunderground v.1.15,2013-02-13 01:38:00,
2013-02-12 18:40:00,27.9,6.7,30.49,NNE,13,0.0,0.0,40,0.00,,,0.00,Wunderground v.1.15,2013-02-13 01:40:00,
2013-02-12 18:42:00,27.8,7.1,30.49,NNE,13,0.0,0.0,41,0.00,,,0.00,Wunderground v.1.15,2013-02-13 01:42:00,
2013-02-12 18:44:00,27.8,7.1,30.49,NNE,13,0.0,0.0,41,0.00,,,0.00,Wunderground v.1.15,2013-02-13 01:44:00,
2013-02-12 18:48:00,27.6,7.5,30.50,NNE,13,0.0,0.0,42,0.00,,,0.00,Wunderground v.1.15,2013-02-13 01:48:00,
2013-02-12 18:50:00,27.5,7.4,30.50,NNE,13,0.0,0.0,42,0.00,,,0.00,Wunderground v.1.15,2013-02-13 01:50:00,
2013-02-12 18:52:00,27.3,7.2,30.50,NNE,13,0.0,0.0,42,0.00,,,0.00,Wunderground v.1.15,2013-02-13 01:52:00,
2013-02-12 18:54:00,27.3,7.2,30.50,NNE,13,0.0,0.0,42,0.00,,,0.00,Wunderground v.1.15,2013-02-13 01:54:00,
2013-02-12 18:56:00,27.2,7.6,30.50,NNE,13,0.0,0.0,43,0.00,,,0.00,Wunderground v.1.15,2013-02-13 01:56:00,
2013-02-12 18:58:00,27.2,7.6,30.50,NNE,13,0.0,0.0,43,0.00,,,0.00,Wunderground v.1.15,2013-02-13 01:58:00,
2013-02-12 19:04:00,26.9,7.4,30.51,NNE,13,0.0,0.0,43,0.00,,,0.00,Wunderground v.1.15,2013-02-13 02:04:00,
2013-02-12 19:06:00,26.7,7.2,30.51,NNE,13,0.0,0.0,43,0.00,,,0.00,Wunderground v.1.15,2013-02-13 02:06:00,
2013-02-12 19:08:00,26.6,7.1,30.51,NNE,13,0.0,0.0,43,0.00,,,0.00,Wunderground v.1.15,2013-02-13 02:08:00,
2013-02-12 19:10:00,26.4,7.4,30.51,NNE,13,0.0,0.0,44,0.00,,,0.00,Wunderground v.1.15,2013-02-13 02:10:00,
2013-02-12 19:14:00,26.1,7.1,30.51,NNE,13,0.0,0.0,44,0.00,,,0.00,Wunderground v.1.15,2013-02-13 02:14:00,
2013-02-12 19:18:00,25.8,7.8,30.52,NNE,13,0.0,0.0,46,0.00,,,0.00,Wunderground v.1.15,2013-02-13 02:18:00,
2013-02-12 19:22:00,25.6,7.7,30.52,NNE,13,0.0,0.0,46,0.00,,,0.00,Wunderground v.1.15,2013-02-13 02:22:00,
2013-02-12 19:28:00,25.4,7.9,30.52,NNE,13,0.0,0.0,47,0.00,,,0.00,Wunderground v.1.15,2013-02-13 02:28:00,
2013-02-12 19:34:00,25.6,9.1,30.52,NNE,13,0.0,0.0,49,0.00,,,0.00,Wunderground v.1.15,2013-02-13 02:34:00,
2013-02-12 19:36:00,25.6,9.5,30.52,ENE,62,0.0,1.0,50,0.00,,,0.00,Wunderground v.1.15,2013-02-13 02:36:00,
2013-02-12 19:38:00,25.6,10.0,30.52,ENE,62,0.0,1.0,51,0.00,,,0.00,Wunderground v.1.15,2013-02-13 02:38:00,
2013-02-12 19:40:00,25.4,10.2,30.52,ENE,62,0.0,1.0,52,0.00,,,0.00,Wunderground v.1.15,2013-02-13 02:40:00,
2013-02-12 19:44:00,25.3,11.4,30.52,ENE,74,0.0,1.0,55,0.00,,,0.00,Wunderground v.1.15,2013-02-13 02:44:00,
2013-02-12 19:48:00,25.0,11.5,30.54,ESE,107,0.0,1.0,56,0.00,,,0.00,Wunderground v.1.15,2013-02-13 02:48:00,
2013-02-12 19:50:00,24.7,11.6,30.54,ESE,107,0.0,2.0,57,0.00,,,0.00,Wunderground v.1.15,2013-02-13 02:50:00,
2013-02-12 19:52:00,24.5,11.4,30.54,ESE,107,0.0,0.0,57,0.00,,,0.00,Wunderground v.1.15,2013-02-13 02:52:00,
2013-02-12 19:54:00,24.4,12.1,30.54,ESE,107,0.0,0.0,59,0.00,,,0.00,Wunderground v.1.15,2013-02-13 02:54:00,
2013-02-12 19:56:00,24.1,11.8,30.54,ESE,107,0.0,1.0,59,0.00,,,0.00,Wunderground v.1.15,2013-02-13 02:56:00,
2013-02-12 20:02:00,23.2,11.4,30.56,SSE,154,1.0,1.0,60,0.00,,,0.00,Wunderground v.1.15,2013-02-13 03:02:00,
2013-02-12 20:04:00,23.0,11.2,30.56,SSE,154,1.0,1.0,60,0.00,,,0.00,Wunderground v.1.15,2013-02-13 03:04:00,
2013-02-12 20:06:00,22.9,11.1,30.56,SSE,154,1.0,1.0,60,0.00,,,0.00,Wunderground v.1.15,2013-02-13 03:06:00,
2013-02-12 20:10:00,22.5,10.7,30.56,SSE,154,0.0,1.0,60,0.00,,,0.00,Wunderground v.1.15,2013-02-13 03:10:00,
2013-02-12 20:14:00,22.2,10.8,30.56,SSE,154,0.0,0.0,61,0.00,,,0.00,Wunderground v.1.15,2013-02-13 03:14:00,
2013-02-12 20:16:00,22.1,10.3,30.56,SSE,154,0.0,2.0,60,0.00,,,0.00,Wunderground v.1.15,2013-02-13 03:16:00,
2013-02-12 20:18:00,21.9,10.1,30.56,SSE,154,0.0,2.0,60,0.00,,,0.00,Wunderground v.1.15,2013-02-13 03:18:00,
2013-02-12 20:20:00,21.9,10.1,30.56,SSE,154,0.0,2.0,60,0.00,,,0.00,Wunderground v.1.15,2013-02-13 03:20:00,
2013-02-12 20:24:00,21.8,10.0,30.56,SSE,154,0.0,0.0,60,0.00,,,0.00,Wunderground v.1.15,2013-02-13 03:24:00,
2013-02-12 20:26:00,21.8,10.4,30.56,SSE,154,0.0,0.0,61,0.00,,,0.00,Wunderground v.1.15,2013-02-13 03:26:00,
2013-02-12 20:30:00,21.6,10.2,30.56,SSE,154,0.0,0.0,61,0.00,,,0.00,Wunderground v.1.15,2013-02-13 03:30:00,
2013-02-12 20:32:00,21.6,10.2,30.56,SSE,154,0.0,0.0,61,0.00,,,0.00,Wunderground v.1.15,2013-02-13 03:32:00,
2013-02-12 20:34:00,21.6,10.2,30.56,SSE,154,0.0,0.0,61,0.00,,,0.00,Wunderground v.1.15,2013-02-13 03:34:00,
2013-02-12 20:36:00,21.4,10.0,30.56,SSE,155,0.0,0.0,61,0.00,,,0.00,Wunderground v.1.15,2013-02-13 03:36:00,
2013-02-12 20:40:00,21.3,9.9,30.56,SSE,154,0.0,2.0,61,0.00,,,0.00,Wunderground v.1.15,2013-02-13 03:40:00,
2013-02-12 20:42:00,21.3,9.9,30.56,SSE,154,0.0,0.0,61,0.00,,,0.00,Wunderground v.1.15,2013-02-13 03:42:00,
2013-02-12 20:46:00,21.1,9.7,30.57,SSE,154,0.0,0.0,61,0.00,,,0.00,Wunderground v.1.15,2013-02-13 03:46:00,
2013-02-12 20:50:00,21.0,9.6,30.57,SSE,154,0.0,0.0,61,0.00,,,0.00,Wunderground v.1.15,2013-02-13 03:50:00,
2013-02-12 20:56:00,20.6,9.6,30.57,SSE,154,0.0,0.0,62,0.00,,,0.00,Wunderground v.1.15,2013-02-13 03:56:00,
2013-02-12 21:02:00,20.5,10.2,30.57,SSE,154,0.0,1.0,64,0.00,,,0.00,Wunderground v.1.15,2013-02-13 04:02:00,
2013-02-12 21:04:00,20.5,9.5,30.57,SSE,154,0.0,2.0,62,0.00,,,0.00,Wunderground v.1.15,2013-02-13 04:04:00,
2013-02-12 21:06:00,20.5,9.5,30.57,SSE,154,0.0,2.0,62,0.00,,,0.00,Wunderground v.1.15,2013-02-13 04:06:00,
2013-02-12 21:08:00,20.5,9.5,30.57,SSE,155,1.0,2.0,62,0.00,,,0.00,Wunderground v.1.15,2013-02-13 04:08:00,
2013-02-12 21:12:00,20.5,9.5,30.57,SSE,154,1.0,2.0,62,0.00,,,0.00,Wunderground v.1.15,2013-02-13 04:12:00,
2013-02-12 21:14:00,20.3,9.3,30.57,SSE,154,1.0,2.0,62,0.00,,,0.00,Wunderground v.1.15,2013-02-13 04:14:00,
2013-02-12 21:18:00,20.3,9.7,30.56,SE,141,1.0,2.0,63,0.00,,,0.00,Wunderground v.1.15,2013-02-13 04:18:00,
2013-02-12 21:20:00,20.3,9.7,30.56,SE,140,1.0,2.0,63,0.00,,,0.00,Wunderground v.1.15,2013-02-13 04:20:00,
2013-02-12 21:24:00,20.3,9.7,30.56,SE,141,1.0,1.0,63,0.00,,,0.00,Wunderground v.1.15,2013-02-13 04:24:00,
2013-02-12 21:26:00,20.2,9.6,30.56,SE,143,1.0,1.0,63,0.00,,,0.00,Wunderground v.1.15,2013-02-13 04:26:00,
2013-02-12 21:28:00,20.2,9.6,30.56,SSE,156,1.0,1.0,63,0.00,,,0.00,Wunderground v.1.15,2013-02-13 04:28:00,
2013-02-12 21:31:00,20.2,9.6,30.56,SE,144,1.0,1.0,63,0.00,,,0.00,Wunderground v.1.15,2013-02-13 04:31:00,
2013-02-12 21:36:00,20.0,9.1,30.56,SE,142,1.0,2.0,62,0.00,,,0.00,Wunderground v.1.15,2013-02-13 04:36:00,
2013-02-12 21:38:00,20.0,9.1,30.56,SE,143,1.0,2.0,62,0.00,,,0.00,Wunderground v.1.15,2013-02-13 04:38:00,
2013-02-12 21:44:00,19.9,9.0,30.56,SE,137,1.0,1.0,62,0.00,,,0.00,Wunderground v.1.15,2013-02-13 04:44:00,
2013-02-12 21:46:00,19.7,8.8,30.56,SSE,155,1.0,1.0,62,0.00,,,0.00,Wunderground v.1.15,2013-02-13 04:46:00,
2013-02-12 21:52:00,19.5,8.6,30.56,SE,140,1.0,1.0,62,0.00,,,0.00,Wunderground v.1.15,2013-02-13 04:52:00,
2013-02-12 21:54:00,19.5,8.6,30.56,SE,140,1.0,1.0,62,0.00,,,0.00,Wunderground v.1.15,2013-02-13 04:54:00,
2013-02-12 21:58:00,19.4,8.5,30.56,SE,141,1.0,3.0,62,0.00,,,0.00,Wunderground v.1.15,2013-02-13 04:58:00,
2013-02-12 22:01:00,19.4,8.5,30.58,SE,141,1.0,1.0,62,0.00,,,0.00,Wunderground v.1.15,2013-02-13 05:01:00,
2013-02-12 22:06:00,19.5,8.6,30.58,SE,141,1.0,1.0,62,0.00,,,0.00,Wunderground v.1.15,2013-02-13 05:06:00,
2013-02-12 22:08:00,19.5,8.2,30.58,SE,141,1.0,1.0,61,0.00,,,0.00,Wunderground v.1.15,2013-02-13 05:08:00,
2013-02-12 22:10:00,19.5,8.2,30.58,SE,141,0.0,1.0,61,0.00,,,0.00,Wunderground v.1.15,2013-02-13 05:10:00,
2013-02-12 22:14:00,19.5,8.2,30.58,SE,141,0.0,1.0,61,0.00,,,0.00,Wunderground v.1.15,2013-02-13 05:14:00,
2013-02-12 22:18:00,19.5,8.2,30.55,SE,141,0.0,1.0,61,0.00,,,0.00,Wunderground v.1.15,2013-02-13 05:18:00,
2013-02-12 22:20:00,19.5,8.2,30.55,SE,141,0.0,1.0,61,0.00,,,0.00,Wunderground v.1.15,2013-02-13 05:20:00,
2013-02-12 22:24:00,19.5,8.2,30.55,SE,141,0.0,1.0,61,0.00,,,0.00,Wunderground v.1.15,2013-02-13 05:24:00,
2013-02-12 22:26:00,19.5,8.2,30.55,SE,141,0.0,1.0,61,0.00,,,0.00,Wunderground v.1.15,2013-02-13 05:26:00,
2013-02-12 22:30:00,19.4,8.1,30.57,SE,141,0.0,0.0,61,0.00,,,0.00,Wunderground v.1.15,2013-02-13 05:30:00,
2013-02-12 22:36:00,19.2,8.3,30.57,SE,141,0.0,1.0,62,0.00,,,0.00,Wunderground v.1.15,2013-02-13 05:36:00,
2013-02-12 22:38:00,19.2,8.3,30.57,South,171,0.0,1.0,62,0.00,,,0.00,Wunderground v.1.15,2013-02-13 05:38:00,
2013-02-12 22:40:00,19.1,7.8,30.57,South,171,1.0,2.0,61,0.00,,,0.00,Wunderground v.1.15,2013-02-13 05:40:00,
2013-02-12 22:44:00,19.1,8.2,30.57,SE,136,1.0,2.0,62,0.00,,,0.00,Wunderground v.1.15,2013-02-13 05:44:00,
2013-02-12 22:46:00,18.9,8.0,30.58,SSE,148,1.0,3.0,62,0.00,,,0.00,Wunderground v.1.15,2013-02-13 05:46:00,
2013-02-12 22:50:00,18.8,7.9,30.58,SSE,148,1.0,1.0,62,0.00,,,0.00,Wunderground v.1.15,2013-02-13 05:50:00,
2013-02-12 22:52:00,18.6,7.7,30.58,SSE,148,1.0,1.0,62,0.00,,,0.00,Wunderground v.1.15,2013-02-13 05:52:00,
2013-02-12 22:54:00,18.6,8.1,30.58,SSE,148,1.0,1.0,63,0.00,,,0.00,Wunderground v.1.15,2013-02-13 05:54:00,
2013-02-12 22:56:00,18.4,7.9,30.58,SSE,148,1.0,1.0,63,0.00,,,0.00,Wunderground v.1.15,2013-02-13 05:56:00,
2013-02-12 22:58:00,18.4,7.9,30.58,SSE,148,0.0,1.0,63,0.00,,,0.00,Wunderground v.1.15,2013-02-13 05:58:00,
2013-02-12 23:00:00,18.3,7.8,30.58,SSE,148,0.0,0.0,63,0.00,,,0.00,Wunderground v.1.15,2013-02-13 06:00:00,
2013-02-12 23:04:00,18.3,8.1,30.57,SSE,148,0.0,1.0,64,0.00,,,0.00,Wunderground v.1.15,2013-02-13 06:04:00,
2013-02-12 23:08:00,18.1,7.6,30.57,SSE,148,0.0,1.0,63,0.00,,,0.00,Wunderground v.1.15,2013-02-13 06:08:00,
2013-02-12 23:10:00,18.1,7.6,30.57,SSE,148,0.0,0.0,63,0.00,,,0.00,Wunderground v.1.15,2013-02-13 06:10:00,
2013-02-12 23:12:00,18.0,7.5,30.57,SSE,148,0.0,0.0,63,0.00,,,0.00,Wunderground v.1.15,2013-02-13 06:12:00,
2013-02-12 23:14:00,18.0,7.5,30.57,SSE,148,0.0,0.0,63,0.00,,,0.00,Wunderground v.1.15,2013-02-13 06:14:00,
2013-02-12 23:18:00,18.0,7.5,30.58,SSE,148,0.0,0.0,63,0.00,,,0.00,Wunderground v.1.15,2013-02-13 06:18:00,
2013-02-12 23:20:00,17.8,7.3,30.58,SSE,148,0.0,2.0,63,0.00,,,0.00,Wunderground v.1.15,2013-02-13 06:20:00,
2013-02-12 23:26:00,17.8,7.3,30.58,SSE,148,1.0,3.0,63,0.00,,,0.00,Wunderground v.1.15,2013-02-13 06:26:00,
2013-02-12 23:30:00,17.8,7.0,30.58,SSE,165,1.0,4.0,62,0.00,,,0.00,Wunderground v.1.15,2013-02-13 06:30:00,
2013-02-12 23:34:00,18.0,7.2,30.58,SSE,165,2.0,4.0,62,0.00,,,0.00,Wunderground v.1.15,2013-02-13 06:34:00,
2013-02-12 23:36:00,18.1,7.3,30.58,SSE,165,2.0,5.0,62,0.00,,,0.00,Wunderground v.1.15,2013-02-13 06:36:00,
2013-02-12 23:38:00,18.1,7.3,30.58,SSE,150,3.0,5.0,62,0.00,,,0.00,Wunderground v.1.15,2013-02-13 06:38:00,
2013-02-12 23:44:00,18.3,7.4,30.58,SSE,155,2.0,2.0,62,0.00,,,0.00,Wunderground v.1.15,2013-02-13 06:44:00,
2013-02-12 23:48:00,18.4,7.5,30.58,SSE,157,2.0,3.0,62,0.00,,,0.00,Wunderground v.1.15,2013-02-13 06:48:00,
2013-02-12 23:50:00,18.4,7.5,30.58,SSE,157,2.0,2.0,62,0.00,,,0.00,Wunderground v.1.15,2013-02-13 06:50:00,
2013-02-12 23:52:00,18.6,7.7,30.58,SSE,156,2.0,2.0,62,0.00,,,0.00,Wunderground v.1.15,2013-02-13 06:52:00,
2013-02-12 23:56:00,18.8,8.3,30.58,SSE,156,1.0,2.0,63,0.00,,,0.00,Wunderground v.1.15,2013-02-13 06:56:00,